Location: *
(51.0333°S, 178.4667°E)
Time: 16:41:27
(UTC+00:00)

STARLINK-28 - Pass Details

Date: 15 November 2019
Orbit: 529 x 530 km, 53.0° (Epoch: 07 December)

Event Time Altitude Azimuth Distance (km) Brightness Sun altitude
Rises 09:15:52 0° 268° (W) 2,681 7.7 -12.7°
Reaches altitude 10° 09:18:06 10° 265° (W) 1,793 6.9 -12.9°
Maximum altitude 09:22:09 65° 182° (S) 595 4.0 -13.3°
Drops below altitude 10° 09:26:12 10° 99° (E) 1,797 6.0 -13.6°
Enters shadow 09:27:40 - 96° (E) 2,377 6.6 -13.8°
